TimeAST,TemperatureF,Dew PointF,Humidity,Sea Level PressureIn,VisibilityMPH,Wind Direction,Wind SpeedMPH,Gust SpeedMPH,PrecipitationIn,Events,Conditions,WindDirDegrees,DateUTC
12:56 AM,82.0,75.0,79,29.92,10.0,NNE,5.8,-,N/A,,Scattered Clouds,30,2012-11-12 04:56:00
1:56 AM,80.1,73.9,81,29.91,8.0,North,4.6,-,0.01,Rain,Light Rain,360,2012-11-12 05:56:00
2:56 AM,80.1,75.9,87,29.90,10.0,Variable,5.8,-,0.02,Rain,Light Rain,0,2012-11-12 06:56:00
3:56 AM,81.0,75.0,82,29.88,10.0,NE,8.1,-,0.00,,Scattered Clouds,40,2012-11-12 07:56:00
4:56 AM,79.0,73.9,84,29.88,10.0,East,8.1,-,0.00,Rain,Light Rain,90,2012-11-12 08:56:00
5:56 AM,79.0,75.9,90,29.89,10.0,Calm,Calm,-,0.01,,Mostly Cloudy,0,2012-11-12 09:56:00
6:56 AM,79.0,75.9,90,29.92,10.0,Calm,Calm,-,N/A,,Mostly Cloudy,0,2012-11-12 10:56:00
7:56 AM,80.1,75.9,87,29.95,10.0,SSE,3.5,-,N/A,,Mostly Cloudy,160,2012-11-12 11:56:00
8:56 AM,82.0,75.9,82,29.97,10.0,ESE,6.9,-,N/A,,Mostly Cloudy,110,2012-11-12 12:56:00
9:56 AM,84.9,75.9,74,29.97,10.0,Variable,3.5,-,N/A,,Scattered Clouds,0,2012-11-12 13:56:00
10:56 AM,87.1,75.9,69,29.95,10.0,NE,8.1,-,N/A,,Scattered Clouds,50,2012-11-12 14:56:00
11:56 AM,87.1,77.0,72,29.92,10.0,ENE,13.8,-,N/A,,Scattered Clouds,70,2012-11-12 15:56:00
12:56 PM,84.0,75.0,74,29.90,10.0,East,11.5,-,N/A,,Scattered Clouds,80,2012-11-12 16:56:00
1:56 PM,87.1,72.0,61,29.88,10.0,ESE,15.0,21.9,N/A,,Scattered Clouds,110,2012-11-12 17:56:00
2:56 PM,86.0,73.9,67,29.86,10.0,East,10.4,-,N/A,,Scattered Clouds,90,2012-11-12 18:56:00
3:56 PM,86.0,73.0,65,29.83,10.0,East,8.1,-,N/A,,Scattered Clouds,80,2012-11-12 19:56:00
4:56 PM,84.9,73.9,69,29.85,10.0,East,10.4,-,N/A,,Scattered Clouds,90,2012-11-12 20:56:00
5:56 PM,82.9,73.0,72,29.88,10.0,ENE,12.7,-,N/A,,Scattered Clouds,60,2012-11-12 21:56:00
6:56 PM,81.0,73.9,79,29.91,10.0,East,10.4,-,N/A,,Scattered Clouds,90,2012-11-12 22:56:00
7:56 PM,81.0,73.9,79,29.92,10.0,East,6.9,-,N/A,,Scattered Clouds,90,2012-11-12 23:56:00
8:56 PM,81.0,73.0,77,29.93,10.0,ESE,4.6,-,N/A,,Scattered Clouds,120,2012-11-13 00:56:00
9:56 PM,81.0,73.0,77,29.94,10.0,Calm,Calm,-,N/A,,Scattered Clouds,0,2012-11-13 01:56:00
10:56 PM,80.1,73.0,79,29.95,10.0,East,5.8,-,N/A,,Mostly Cloudy,90,2012-11-13 02:56:00
11:56 PM,82.9,72.0,69,29.94,10.0,ENE,13.8,-,N/A,,Mostly Cloudy,70,2012-11-13 03:56:00